Location: Marne
(34.0056°N, 117.9064°W)
Time: 14:56:50
(UTC+00:00)

Cosmos 1939 Rocket - Pass Details

Date: 18 January 2020
Orbit: 534 x 583 km, 97.4° (Epoch: 22 February)

Event Time Altitude Azimuth Distance (km) Brightness Sun altitude
Rises 02:32:58 0° 162° (SSE) 2,667 6.3 -17.6°
Reaches altitude 10° 02:35:03 10° 160° (SSE) 1,783 5.3 -18.0°
Maximum altitude 02:38:53 70° 77° (ENE) 575 2.6 -18.8°
Drops below altitude 10° 02:42:46 10° 354° (N) 1,813 5.4 -19.6°
Sets 02:44:55 0° 352° (N) 2,717 6.3 -20.0°
